GAF1055 PADU-PAWG

Flight info

Callsign GAF1055
Flight time N/A
Altitude 17000
Route DUT J115 CDB HBT ODK Q16 MDO J605 BKA LVD
Aircraft C160/M-SDFGIRY/S

Departure

Time N/A
Airport Tom Madsen (Dutch Harbor) Airport (PADU)

Arrival

Time 2026-04-29 19:58
Airport Wrangell Airport (PAWG)
Time Latitude Longitude Altitude Speed Heading
2026-04-29 15:57 55.14076 -163.15673 17036 ft 291 kts 57°
2026-04-29 15:58 55.15107 -163.12614 17044 ft 292 kts 57°
2026-04-29 15:58 55.16129 -163.09588 17048 ft 292 kts 57°
2026-04-29 15:58 55.17162 -163.06532 17055 ft 291 kts 57°
2026-04-29 15:58 55.18192 -163.03481 17054 ft 291 kts 57°
2026-04-29 15:59 55.19221 -163.00427 17055 ft 291 kts 57°
2026-04-29 15:59 55.20246 -162.97383 17058 ft 291 kts 57°
2026-04-29 15:59 55.21274 -162.94328 17058 ft 290 kts 57°
2026-04-29 15:59 55.22298 -162.91285 17061 ft 290 kts 57°
2026-04-29 16:00 55.23304 -162.88295 17058 ft 290 kts 57°
2026-04-29 16:00 55.24327 -162.85250 17060 ft 290 kts 57°
2026-04-29 16:00 55.25343 -162.82179 17056 ft 291 kts 58°
2026-04-29 16:00 55.26322 -162.79078 17053 ft 291 kts 60°
2026-04-29 16:01 55.27116 -162.75806 17034 ft 292 kts 79°
2026-04-29 16:01 55.27282 -162.72288 17053 ft 289 kts 93°
2026-04-29 16:01 55.27266 -162.68766 17053 ft 288 kts 94°
2026-04-29 16:01 55.27149 -162.65309 17051 ft 287 kts 97°
2026-04-29 16:02 55.27131 -162.61792 17050 ft 289 kts 90°
2026-04-29 16:02 55.27292 -162.58276 17051 ft 290 kts 86°
2026-04-29 16:02 55.27464 -162.54743 17050 ft 290 kts 88°
2026-04-29 16:02 55.27568 -162.51210 17053 ft 289 kts 91°
2026-04-29 16:03 55.27625 -162.47682 17054 ft 290 kts 91°
2026-04-29 16:03 55.27692 -162.44145 17054 ft 290 kts 90°
2026-04-29 16:03 55.27800 -162.40657 17092 ft 290 kts 89°
2026-04-29 16:03 55.27936 -162.37119 17094 ft 290 kts 88°
2026-04-29 16:04 55.28064 -162.33575 17096 ft 290 kts 89°
2026-04-29 16:04 55.28164 -162.30035 17097 ft 291 kts 90°
2026-04-29 16:04 55.28251 -162.26485 17102 ft 291 kts 90°
2026-04-29 16:04 55.28345 -162.22938 17101 ft 291 kts 90°
2026-04-29 16:05 55.28457 -162.19390 17105 ft 291 kts 89°
2026-04-29 16:05 55.28576 -162.15839 17090 ft 291 kts 89°
2026-04-29 16:05 55.28688 -162.12282 17090 ft 292 kts 89°
2026-04-29 16:05 55.28789 -162.08723 17091 ft 292 kts 90°
2026-04-29 16:06 55.28887 -162.05176 17078 ft 290 kts 90°
2026-04-29 16:06 55.28993 -162.01641 17088 ft 289 kts 89°
2026-04-29 16:06 55.29102 -161.98176 17092 ft 288 kts 89°
2026-04-29 16:06 55.29206 -161.94653 17078 ft 289 kts 89°
2026-04-29 16:07 55.29307 -161.91128 17080 ft 289 kts 89°
2026-04-29 16:07 55.29377 -161.88788 17078 ft 289 kts 89°
2026-04-29 16:07 55.29522 -161.84071 17082 ft 289 kts 89°
2026-04-29 16:07 55.29630 -161.80543 17090 ft 289 kts 89°
2026-04-29 16:08 55.29734 -161.77024 17082 ft 289 kts 89°
2026-04-29 16:08 55.29836 -161.73496 17081 ft 289 kts 89°
2026-04-29 16:08 55.29939 -161.69969 17089 ft 289 kts 89°
2026-04-29 16:08 55.30045 -161.66447 17090 ft 289 kts 89°
2026-04-29 16:09 55.30154 -161.62914 17085 ft 289 kts 89°
2026-04-29 16:09 55.30262 -161.59389 17090 ft 289 kts 89°
2026-04-29 16:09 55.30366 -161.55859 17101 ft 289 kts 89°
2026-04-29 16:09 55.30468 -161.52334 17096 ft 289 kts 89°
2026-04-29 16:10 55.30571 -161.48806 17100 ft 289 kts 89°
2026-04-29 16:10 55.30677 -161.45279 17101 ft 288 kts 89°
2026-04-29 16:10 55.30786 -161.41762 17092 ft 288 kts 89°
2026-04-29 16:10 55.30893 -161.38246 17094 ft 288 kts 89°
2026-04-29 16:11 55.30996 -161.34773 17105 ft 288 kts 89°
2026-04-29 16:11 55.31097 -161.31255 17105 ft 288 kts 89°
2026-04-29 16:11 55.31199 -161.27742 17105 ft 288 kts 89°
2026-04-29 16:11 55.31305 -161.24230 17105 ft 288 kts 89°
2026-04-29 16:12 55.31414 -161.20715 17103 ft 288 kts 89°
2026-04-29 16:12 55.31485 -161.18394 17105 ft 288 kts 89°
2026-04-29 16:12 55.31625 -161.13691 17107 ft 288 kts 89°
2026-04-29 16:12 55.31726 -161.10173 17120 ft 288 kts 89°
2026-04-29 16:13 55.31828 -161.06662 17123 ft 288 kts 89°
2026-04-29 16:13 55.31935 -161.03153 17126 ft 288 kts 89°
2026-04-29 16:13 55.32043 -160.99638 17128 ft 288 kts 89°
2026-04-29 16:13 55.32150 -160.96126 17131 ft 288 kts 89°
2026-04-29 16:14 55.32253 -160.92604 17134 ft 288 kts 89°
2026-04-29 16:14 55.32354 -160.89092 17137 ft 288 kts 89°
2026-04-29 16:14 55.32457 -160.85579 17145 ft 287 kts 89°
2026-04-29 16:14 55.32565 -160.82074 17143 ft 288 kts 89°
2026-04-29 16:15 55.32673 -160.78561 17156 ft 288 kts 89°
2026-04-29 16:15 55.32776 -160.75092 17158 ft 288 kts 90°
2026-04-29 16:15 55.32880 -160.71584 17162 ft 287 kts 90°
2026-04-29 16:15 55.32983 -160.68082 17163 ft 287 kts 90°
2026-04-29 16:16 55.33087 -160.64581 17164 ft 286 kts 90°
2026-04-29 16:16 55.33189 -160.61088 17164 ft 286 kts 90°
2026-04-29 16:16 55.33293 -160.57594 17163 ft 286 kts 90°
2026-04-29 16:16 55.33400 -160.54102 17163 ft 286 kts 89°
2026-04-29 16:17 55.33506 -160.50616 17164 ft 286 kts 90°
2026-04-29 16:17 55.33609 -160.47124 17163 ft 286 kts 90°
2026-04-29 16:17 55.33710 -160.43631 17163 ft 286 kts 90°
2026-04-29 16:17 55.33813 -160.40140 17162 ft 286 kts 90°
2026-04-29 16:18 55.33918 -160.36642 17163 ft 286 kts 90°
2026-04-29 16:18 55.34026 -160.33146 17161 ft 286 kts 89°
2026-04-29 16:18 55.34132 -160.29663 17147 ft 286 kts 90°
2026-04-29 16:18 55.34233 -160.26175 17138 ft 285 kts 90°
2026-04-29 16:19 55.34332 -160.22700 17138 ft 285 kts 90°
2026-04-29 16:19 55.34432 -160.19265 17138 ft 285 kts 89°
2026-04-29 16:19 55.34539 -160.15791 17138 ft 285 kts 89°
2026-04-29 16:19 55.34648 -160.12310 17147 ft 285 kts 89°
2026-04-29 16:20 55.34754 -160.08831 17146 ft 285 kts 89°
2026-04-29 16:20 55.34854 -160.05356 17146 ft 285 kts 90°
2026-04-29 16:20 55.34953 -160.01873 17146 ft 285 kts 90°
2026-04-29 16:20 55.35054 -159.98404 17146 ft 285 kts 89°
2026-04-29 16:21 55.35125 -159.96099 17146 ft 285 kts 89°
2026-04-29 16:21 55.35233 -159.92621 17146 ft 285 kts 89°
2026-04-29 16:21 55.35340 -159.89143 17155 ft 285 kts 89°
2026-04-29 16:21 55.35441 -159.85662 17154 ft 285 kts 90°
2026-04-29 16:22 55.35540 -159.82193 17157 ft 285 kts 90°
2026-04-29 16:22 55.35641 -159.78718 17157 ft 285 kts 89°
2026-04-29 16:22 55.35747 -159.75241 17157 ft 285 kts 89°
2026-04-29 16:22 55.35855 -159.71766 17158 ft 285 kts 89°
2026-04-29 16:23 55.35960 -159.68291 17157 ft 285 kts 89°
2026-04-29 16:23 55.36060 -159.64826 17162 ft 283 kts 89°
2026-04-29 16:23 55.36158 -159.61361 17162 ft 284 kts 89°
2026-04-29 16:23 55.36260 -159.57891 17163 ft 284 kts 89°
2026-04-29 16:24 55.36368 -159.54424 17160 ft 284 kts 89°
2026-04-29 16:24 55.36476 -159.50955 17158 ft 284 kts 89°
2026-04-29 16:24 55.36580 -159.47481 17159 ft 284 kts 89°
2026-04-29 16:24 55.36678 -159.44047 17159 ft 285 kts 89°
2026-04-29 16:25 55.36778 -159.40569 17179 ft 285 kts 90°
2026-04-29 16:25 55.36866 -159.37097 17179 ft 284 kts 90°
2026-04-29 16:25 55.36947 -159.33620 17179 ft 284 kts 90°
2026-04-29 16:25 55.37031 -159.30135 17179 ft 284 kts 90°
2026-04-29 16:26 55.37428 -159.26740 17173 ft 285 kts 64°
2026-04-29 16:26 55.38502 -159.23840 17178 ft 283 kts 48°
2026-04-29 16:26 55.39831 -159.21307 17180 ft 281 kts 40°
2026-04-29 16:26 55.41243 -159.18929 17183 ft 281 kts 39°
2026-04-29 16:27 55.42654 -159.16616 17183 ft 281 kts 38°
2026-04-29 16:27 55.44086 -159.14281 17183 ft 281 kts 38°
2026-04-29 16:27 55.45519 -159.11941 17186 ft 281 kts 38°
2026-04-29 16:27 55.46952 -159.09601 17187 ft 281 kts 38°
2026-04-29 16:28 55.48384 -159.07258 17191 ft 281 kts 38°
2026-04-29 16:28 55.49817 -159.04911 17194 ft 281 kts 39°
2026-04-29 16:28 55.51254 -159.02559 17192 ft 281 kts 38°
2026-04-29 16:28 55.52687 -159.00210 17192 ft 281 kts 39°
2026-04-29 16:29 55.54122 -158.97857 17189 ft 281 kts 39°
2026-04-29 16:29 55.55556 -158.95505 17189 ft 281 kts 39°
2026-04-29 16:29 55.56993 -158.93149 17191 ft 282 kts 39°
2026-04-29 16:29 55.58436 -158.90794 17190 ft 282 kts 39°
2026-04-29 16:30 55.59882 -158.88442 17163 ft 282 kts 39°
2026-04-29 16:30 55.61323 -158.86095 17177 ft 282 kts 39°
2026-04-29 16:30 55.62763 -158.83746 17178 ft 282 kts 39°
2026-04-29 16:30 55.64204 -158.81390 17180 ft 282 kts 39°
2026-04-29 16:31 55.65628 -158.79062 17181 ft 282 kts 39°
2026-04-29 16:31 55.67067 -158.76708 17180 ft 282 kts 39°
2026-04-29 16:31 55.68507 -158.74352 17179 ft 282 kts 39°
2026-04-29 16:31 55.69948 -158.71995 17183 ft 282 kts 39°
2026-04-29 16:32 55.71391 -158.69632 17184 ft 282 kts 39°
2026-04-29 16:32 55.72830 -158.67274 17182 ft 282 kts 39°
2026-04-29 16:32 55.74271 -158.64910 17184 ft 282 kts 39°
2026-04-29 16:32 55.75712 -158.62546 17189 ft 282 kts 39°
2026-04-29 16:33 55.78593 -158.57816 17201 ft 282 kts 39°
2026-04-29 16:33 55.80038 -158.55451 17200 ft 282 kts 39°
2026-04-29 16:33 55.81483 -158.53091 17201 ft 282 kts 39°
2026-04-29 16:34 55.82934 -158.50728 17195 ft 282 kts 39°
2026-04-29 16:34 55.84383 -158.48372 17197 ft 282 kts 38°
2026-04-29 16:34 55.85834 -158.46018 17197 ft 282 kts 38°
2026-04-29 16:34 55.87289 -158.43664 17198 ft 282 kts 38°
2026-04-29 16:35 55.88726 -158.41345 17200 ft 282 kts 38°
2026-04-29 16:35 55.90201 -158.38969 17200 ft 282 kts 38°
2026-04-29 16:35 55.91661 -158.36624 17195 ft 282 kts 38°
2026-04-29 16:35 55.93104 -158.34311 17198 ft 282 kts 38°
2026-04-29 16:36 55.94569 -158.31968 17195 ft 282 kts 38°
2026-04-29 16:36 55.96032 -158.29634 17198 ft 282 kts 38°
2026-04-29 16:36 55.97498 -158.27302 17198 ft 282 kts 38°
2026-04-29 16:36 55.98969 -158.24966 17197 ft 282 kts 38°
2026-04-29 16:37 56.00439 -158.22641 17199 ft 282 kts 38°
2026-04-29 16:37 56.01910 -158.20325 17199 ft 282 kts 38°
2026-04-29 16:37 56.03382 -158.18014 17198 ft 281 kts 38°
2026-04-29 16:37 56.04355 -158.16489 17197 ft 281 kts 38°
2026-04-29 16:38 56.06322 -158.13413 17195 ft 281 kts 37°
2026-04-29 16:38 56.07792 -158.11120 17206 ft 280 kts 37°
2026-04-29 16:38 56.09262 -158.08833 17203 ft 280 kts 37°
2026-04-29 16:38 56.10736 -158.06546 17203 ft 280 kts 37°
2026-04-29 16:39 56.12209 -158.04265 17206 ft 280 kts 37°
2026-04-29 16:39 56.13686 -158.01985 17205 ft 280 kts 37°
2026-04-29 16:39 56.15164 -157.99708 17205 ft 280 kts 37°
2026-04-29 16:39 56.16623 -157.97466 17206 ft 280 kts 37°
2026-04-29 16:40 56.18103 -157.95198 17202 ft 280 kts 37°
2026-04-29 16:40 56.19587 -157.92929 17203 ft 280 kts 37°
2026-04-29 16:40 56.21071 -157.90666 17202 ft 280 kts 37°
2026-04-29 16:40 56.22561 -157.88406 17203 ft 280 kts 37°
2026-04-29 16:41 56.24053 -157.86163 17197 ft 280 kts 37°
2026-04-29 16:41 56.25550 -157.83922 17194 ft 280 kts 37°
2026-04-29 16:41 56.27046 -157.81688 17205 ft 280 kts 37°
2026-04-29 16:41 56.28497 -157.79348 17199 ft 280 kts 42°
2026-04-29 16:42 56.29860 -157.76828 17194 ft 281 kts 45°
2026-04-29 16:42 56.31092 -157.74107 17191 ft 281 kts 57°
2026-04-29 16:42 56.32034 -157.71014 17197 ft 281 kts 64°
2026-04-29 16:42 56.32907 -157.67864 17193 ft 281 kts 63°
2026-04-29 16:43 56.33812 -157.64734 17202 ft 281 kts 62°
2026-04-29 16:43 56.34744 -157.61633 17207 ft 281 kts 61°
2026-04-29 16:43 56.35674 -157.58591 17208 ft 281 kts 61°
2026-04-29 16:43 56.36617 -157.55510 17208 ft 281 kts 61°
2026-04-29 16:44 56.37560 -157.52422 17208 ft 281 kts 61°
2026-04-29 16:44 56.38502 -157.49330 17208 ft 281 kts 61°
2026-04-29 16:44 56.39443 -157.46238 17209 ft 281 kts 61°
2026-04-29 16:44 56.40386 -157.43138 17208 ft 281 kts 61°
2026-04-29 16:45 56.41328 -157.40050 17218 ft 281 kts 62°
2026-04-29 16:45 56.42289 -157.36981 17218 ft 280 kts 61°
2026-04-29 16:45 56.43258 -157.33927 17217 ft 280 kts 61°
2026-04-29 16:45 56.44226 -157.30881 17213 ft 279 kts 61°
2026-04-29 16:46 56.45194 -157.27836 17224 ft 279 kts 61°
2026-04-29 16:46 56.46160 -157.24790 17224 ft 279 kts 61°
2026-04-29 16:46 56.47124 -157.21751 17228 ft 279 kts 61°
2026-04-29 16:46 56.48086 -157.18712 17226 ft 278 kts 61°
2026-04-29 16:47 56.49050 -157.15668 17229 ft 278 kts 61°
2026-04-29 16:47 56.50011 -157.12630 17224 ft 278 kts 61°
2026-04-29 16:47 56.50975 -157.09580 17218 ft 278 kts 62°
2026-04-29 16:47 56.51888 -157.06488 17226 ft 278 kts 64°
2026-04-29 16:48 56.52748 -157.03355 17225 ft 278 kts 66°
2026-04-29 16:48 56.53587 -157.00198 17227 ft 278 kts 66°
2026-04-29 16:48 56.54410 -156.97027 17231 ft 278 kts 68°
2026-04-29 16:48 56.55188 -156.93827 17236 ft 277 kts 69°
2026-04-29 16:49 56.55865 -156.90553 17234 ft 277 kts 73°
2026-04-29 16:49 56.56461 -156.87242 17223 ft 276 kts 75°
2026-04-29 16:49 56.57021 -156.83913 17234 ft 276 kts 76°
2026-04-29 16:49 56.57566 -156.80570 17241 ft 276 kts 76°
2026-04-29 16:50 56.58105 -156.77288 17228 ft 274 kts 77°
2026-04-29 16:50 56.58660 -156.73981 17229 ft 274 kts 76°
2026-04-29 16:50 56.59219 -156.70681 17228 ft 273 kts 76°
2026-04-29 16:50 56.59776 -156.67385 17228 ft 273 kts 76°
2026-04-29 16:51 56.60334 -156.64090 17236 ft 273 kts 76°
2026-04-29 16:51 56.60892 -156.60801 17236 ft 273 kts 76°
2026-04-29 16:51 56.61568 -156.57577 17233 ft 274 kts 68°
2026-04-29 16:51 56.62420 -156.54468 17235 ft 275 kts 64°
2026-04-29 16:52 56.63347 -156.51431 17235 ft 275 kts 62°
2026-04-29 16:52 56.64308 -156.48420 17236 ft 275 kts 62°
2026-04-29 16:52 56.65280 -156.45419 17236 ft 275 kts 62°
2026-04-29 16:52 56.66251 -156.42419 17235 ft 275 kts 62°
2026-04-29 16:53 56.67240 -156.39432 17238 ft 276 kts 60°
2026-04-29 16:53 56.68249 -156.36460 17238 ft 276 kts 60°
2026-04-29 16:53 56.69265 -156.33501 17238 ft 276 kts 60°
2026-04-29 16:53 56.70284 -156.30544 17239 ft 276 kts 59°
2026-04-29 16:54 56.71291 -156.27626 17244 ft 276 kts 59°
2026-04-29 16:54 56.72325 -156.24630 17243 ft 276 kts 59°
2026-04-29 16:54 56.73331 -156.21709 17244 ft 276 kts 60°
2026-04-29 16:54 56.74349 -156.18747 17243 ft 275 kts 60°
2026-04-29 16:55 56.75365 -156.15795 17248 ft 275 kts 60°
2026-04-29 16:55 56.76389 -156.12847 17248 ft 275 kts 60°
2026-04-29 16:55 56.77419 -156.09910 17247 ft 275 kts 60°
2026-04-29 16:55 56.78448 -156.06972 17248 ft 275 kts 60°
2026-04-29 16:56 56.79479 -156.04030 17247 ft 275 kts 60°
2026-04-29 16:56 56.80505 -156.01097 17247 ft 274 kts 60°
2026-04-29 16:56 56.81532 -155.98159 17247 ft 275 kts 60°
2026-04-29 16:56 56.82559 -155.95218 17248 ft 275 kts 60°
2026-04-29 16:57 56.83584 -155.92279 17247 ft 275 kts 60°
2026-04-29 16:57 56.84613 -155.89327 17249 ft 274 kts 60°
2026-04-29 16:57 56.85623 -155.86431 17259 ft 273 kts 60°
2026-04-29 16:57 56.86661 -155.83462 17256 ft 274 kts 60°
2026-04-29 16:58 56.87675 -155.80560 17256 ft 274 kts 60°
2026-04-29 16:58 56.88700 -155.77621 17250 ft 274 kts 60°
2026-04-29 16:58 56.89724 -155.74680 17260 ft 274 kts 60°
2026-04-29 16:58 56.90748 -155.71740 17256 ft 274 kts 60°
2026-04-29 16:59 56.91774 -155.68796 17259 ft 274 kts 60°
2026-04-29 16:59 56.92798 -155.65854 17258 ft 274 kts 60°
2026-04-29 16:59 56.93820 -155.62917 17259 ft 274 kts 60°
2026-04-29 16:59 56.94841 -155.59978 17259 ft 273 kts 60°
2026-04-29 17:00 56.95861 -155.57041 17263 ft 273 kts 60°
2026-04-29 17:00 56.96879 -155.54106 17258 ft 273 kts 60°
2026-04-29 17:00 56.97862 -155.51142 17260 ft 272 kts 63°
2026-04-29 17:00 56.98786 -155.48121 17262 ft 271 kts 64°
2026-04-29 17:01 56.99685 -155.45078 17260 ft 271 kts 65°
2026-04-29 17:01 57.00569 -155.42024 17263 ft 270 kts 66°
2026-04-29 17:01 57.01408 -155.38944 17261 ft 270 kts 67°
2026-04-29 17:01 57.02225 -155.35847 17263 ft 269 kts 68°
2026-04-29 17:02 57.03036 -155.32748 17263 ft 269 kts 68°
2026-04-29 17:02 57.03840 -155.29695 17268 ft 269 kts 66°
2026-04-29 17:02 57.04919 -155.26875 17268 ft 271 kts 47°
2026-04-29 17:02 57.06282 -155.24478 17265 ft 271 kts 42°
2026-04-29 17:03 57.07707 -155.22198 17268 ft 271 kts 40°
2026-04-29 17:03 57.09137 -155.19925 17265 ft 271 kts 44°
2026-04-29 17:03 57.10105 -155.17048 17256 ft 263 kts 81°
2026-04-29 17:03 57.10152 -155.13791 17277 ft 252 kts 102°
2026-04-29 17:04 57.09947 -155.10584 17288 ft 253 kts 102°
2026-04-29 17:04 57.09846 -155.07333 17288 ft 258 kts 96°
2026-04-29 17:04 57.09906 -155.03976 17292 ft 267 kts 92°
2026-04-29 17:04 57.10097 -155.00537 17290 ft 273 kts 88°
2026-04-29 17:05 57.10409 -154.97072 17285 ft 277 kts 84°
2026-04-29 17:05 57.10832 -154.93601 17291 ft 279 kts 81°
2026-04-29 17:05 57.11354 -154.90145 17286 ft 282 kts 78°
2026-04-29 17:05 57.11960 -154.86698 17289 ft 283 kts 75°
2026-04-29 17:06 57.12631 -154.83281 17297 ft 284 kts 73°
2026-04-29 17:06 57.13356 -154.79892 17301 ft 285 kts 72°
2026-04-29 17:06 57.14115 -154.76571 17299 ft 285 kts 71°
2026-04-29 17:06 57.14918 -154.73224 17294 ft 286 kts 70°
2026-04-29 17:07 57.15743 -154.69890 17301 ft 286 kts 69°
2026-04-29 17:07 57.16303 -154.67687 17296 ft 286 kts 69°
2026-04-29 17:07 57.17446 -154.63249 17301 ft 286 kts 68°
2026-04-29 17:07 57.18313 -154.59938 17298 ft 286 kts 68°
2026-04-29 17:08 57.19192 -154.56645 17295 ft 286 kts 67°
2026-04-29 17:08 57.20073 -154.53358 17299 ft 286 kts 67°
2026-04-29 17:08 57.20955 -154.50063 17311 ft 287 kts 67°
2026-04-29 17:08 57.21836 -154.46764 17313 ft 287 kts 67°
2026-04-29 17:09 57.22734 -154.43467 17309 ft 288 kts 66°
2026-04-29 17:09 57.23643 -154.40180 17305 ft 287 kts 66°
2026-04-29 17:09 57.24553 -154.36901 17310 ft 287 kts 66°
2026-04-29 17:09 57.25461 -154.33627 17304 ft 286 kts 67°
2026-04-29 17:10 57.26353 -154.30364 17306 ft 284 kts 67°
2026-04-29 17:10 57.27235 -154.27097 17303 ft 283 kts 68°
2026-04-29 17:10 57.27814 -154.24937 17303 ft 284 kts 68°
2026-04-29 17:10 57.28976 -154.20615 17303 ft 283 kts 68°
2026-04-29 17:11 57.29850 -154.17362 17300 ft 282 kts 68°
2026-04-29 17:11 57.30725 -154.14114 17296 ft 283 kts 68°
2026-04-29 17:11 57.31598 -154.10868 17300 ft 281 kts 67°
2026-04-29 17:11 57.32467 -154.07635 17300 ft 281 kts 67°
2026-04-29 17:12 57.33055 -154.05441 17301 ft 281 kts 68°
2026-04-29 17:12 57.33911 -154.02243 17303 ft 281 kts 68°
2026-04-29 17:12 57.34779 -153.99000 17299 ft 281 kts 68°
2026-04-29 17:12 57.35365 -153.96810 17309 ft 281 kts 68°
2026-04-29 17:13 57.36513 -153.92507 17310 ft 282 kts 68°
2026-04-29 17:13 57.37380 -153.89245 17307 ft 282 kts 68°
2026-04-29 17:13 57.38246 -153.85988 17308 ft 281 kts 68°
2026-04-29 17:13 57.39112 -153.82737 17308 ft 281 kts 68°
2026-04-29 17:14 57.39977 -153.79488 17309 ft 281 kts 68°
2026-04-29 17:14 57.40840 -153.76238 17309 ft 281 kts 68°
2026-04-29 17:14 57.41701 -153.72983 17312 ft 281 kts 68°
2026-04-29 17:14 57.42565 -153.69733 17310 ft 279 kts 68°
2026-04-29 17:15 57.43423 -153.66520 17309 ft 277 kts 68°
2026-04-29 17:15 57.44281 -153.63325 17315 ft 277 kts 68°
2026-04-29 17:15 57.45140 -153.60116 17315 ft 279 kts 68°
2026-04-29 17:15 57.46001 -153.56891 17313 ft 278 kts 68°
2026-04-29 17:16 57.46858 -153.53677 17312 ft 278 kts 68°
2026-04-29 17:16 57.47721 -153.50450 17317 ft 278 kts 68°
2026-04-29 17:16 57.48577 -153.47241 17314 ft 277 kts 68°
2026-04-29 17:16 57.49432 -153.44038 17314 ft 277 kts 68°
2026-04-29 17:17 57.50289 -153.40834 17314 ft 277 kts 68°
2026-04-29 17:17 57.51146 -153.37622 17326 ft 278 kts 68°
2026-04-29 17:17 57.52004 -153.34393 17329 ft 279 kts 68°
2026-04-29 17:17 57.52861 -153.31153 17331 ft 280 kts 68°
2026-04-29 17:18 57.53724 -153.27887 17330 ft 281 kts 68°
2026-04-29 17:18 57.54588 -153.24618 17326 ft 282 kts 68°
2026-04-29 17:18 57.55441 -153.21388 17333 ft 282 kts 68°
2026-04-29 17:18 57.56309 -153.18101 17315 ft 284 kts 68°
2026-04-29 17:19 57.57172 -153.14788 17319 ft 286 kts 68°
2026-04-29 17:19 57.58032 -153.11451 17327 ft 285 kts 68°
2026-04-29 17:19 57.58884 -153.08116 17329 ft 284 kts 68°
2026-04-29 17:19 57.59733 -153.04790 17328 ft 285 kts 68°
2026-04-29 17:20 57.60585 -153.01456 17332 ft 285 kts 68°
2026-04-29 17:20 57.61439 -152.98119 17346 ft 285 kts 68°
2026-04-29 17:20 57.62292 -152.94776 17345 ft 285 kts 68°
2026-04-29 17:20 57.63147 -152.91429 17346 ft 285 kts 68°
2026-04-29 17:21 57.63998 -152.88086 17345 ft 285 kts 68°
2026-04-29 17:21 57.64850 -152.84742 17344 ft 285 kts 68°
2026-04-29 17:21 57.65702 -152.81390 17340 ft 285 kts 68°
2026-04-29 17:21 57.66551 -152.78050 17352 ft 285 kts 68°
2026-04-29 17:22 57.67401 -152.74705 17355 ft 285 kts 68°
2026-04-29 17:22 57.68250 -152.71362 17355 ft 285 kts 68°
2026-04-29 17:22 57.69102 -152.68000 17358 ft 286 kts 68°
2026-04-29 17:22 57.69953 -152.64638 17357 ft 286 kts 68°
2026-04-29 17:23 57.70806 -152.61269 17356 ft 286 kts 68°
2026-04-29 17:23 57.71656 -152.57900 17356 ft 286 kts 68°
2026-04-29 17:23 57.72475 -152.54662 17359 ft 287 kts 68°
2026-04-29 17:23 57.73325 -152.51286 17356 ft 287 kts 68°
2026-04-29 17:24 57.74179 -152.47907 17358 ft 286 kts 68°
2026-04-29 17:24 57.75021 -152.44546 17353 ft 284 kts 71°
2026-04-29 17:24 57.75721 -152.41103 17352 ft 282 kts 75°
2026-04-29 17:24 57.76371 -152.37643 17351 ft 282 kts 73°
2026-04-29 17:25 57.77177 -152.34287 17348 ft 284 kts 64°
2026-04-29 17:25 57.78193 -152.31107 17350 ft 285 kts 60°
2026-04-29 17:25 57.79313 -152.28038 17350 ft 286 kts 58°
2026-04-29 17:25 57.80418 -152.24951 17348 ft 285 kts 61°
2026-04-29 17:26 57.81413 -152.21802 17325 ft 283 kts 64°
2026-04-29 17:26 57.82340 -152.18545 17349 ft 283 kts 65°
2026-04-29 17:26 57.83269 -152.15271 17350 ft 284 kts 64°
2026-04-29 17:26 57.84256 -152.12041 17352 ft 285 kts 62°
2026-04-29 17:27 57.85291 -152.08858 17357 ft 286 kts 61°
2026-04-29 17:27 57.86330 -152.05672 17359 ft 286 kts 62°
2026-04-29 17:27 57.87336 -152.02443 17359 ft 286 kts 63°
2026-04-29 17:27 57.88308 -151.99189 17359 ft 285 kts 64°
2026-04-29 17:28 57.89263 -151.95970 17359 ft 286 kts 63°
2026-04-29 17:28 57.90250 -151.92725 17360 ft 286 kts 62°
2026-04-29 17:28 57.91259 -151.89498 17363 ft 286 kts 62°
2026-04-29 17:28 57.92268 -151.86285 17362 ft 285 kts 62°
2026-04-29 17:29 57.93263 -151.83056 17361 ft 285 kts 63°
2026-04-29 17:29 57.94238 -151.79820 17363 ft 284 kts 64°
2026-04-29 17:29 57.95209 -151.76575 17376 ft 284 kts 63°
2026-04-29 17:29 57.95855 -151.74432 17374 ft 284 kts 63°
2026-04-29 17:30 57.97175 -151.70118 17371 ft 284 kts 63°
2026-04-29 17:30 57.98167 -151.66899 17371 ft 284 kts 63°
2026-04-29 17:30 57.99098 -151.63850 17372 ft 284 kts 63°
2026-04-29 17:30 58.00075 -151.60605 17371 ft 284 kts 63°
2026-04-29 17:31 58.01045 -151.57359 17374 ft 284 kts 63°
2026-04-29 17:31 58.02018 -151.54118 17374 ft 284 kts 63°
2026-04-29 17:31 58.02999 -151.50880 17374 ft 284 kts 63°
2026-04-29 17:31 58.03982 -151.47647 17374 ft 284 kts 63°
2026-04-29 17:32 58.04961 -151.44408 17379 ft 284 kts 63°
2026-04-29 17:32 58.05933 -151.41164 17379 ft 284 kts 63°
2026-04-29 17:32 58.06901 -151.37911 17380 ft 284 kts 64°
2026-04-29 17:32 58.07869 -151.34660 17382 ft 284 kts 63°
2026-04-29 17:33 58.08831 -151.31452 17385 ft 284 kts 63°
2026-04-29 17:33 58.09806 -151.28216 17385 ft 284 kts 63°
2026-04-29 17:33 58.10778 -151.24973 17385 ft 284 kts 64°
2026-04-29 17:33 58.11744 -151.21718 17384 ft 283 kts 64°
2026-04-29 17:34 58.12706 -151.18460 17382 ft 283 kts 64°
2026-04-29 17:34 58.13669 -151.15202 17382 ft 283 kts 64°
2026-04-29 17:34 58.14636 -151.11948 17391 ft 283 kts 63°
2026-04-29 17:34 58.15601 -151.08701 17390 ft 283 kts 63°
2026-04-29 17:35 58.17208 -151.03277 17390 ft 284 kts 63°
2026-04-29 17:35 58.18497 -150.98910 17396 ft 284 kts 63°
2026-04-29 17:35 58.19446 -150.95680 17399 ft 284 kts 63°
2026-04-29 17:36 58.20407 -150.92406 17403 ft 284 kts 63°
2026-04-29 17:36 58.21370 -150.89124 17400 ft 285 kts 63°
2026-04-29 17:36 58.22336 -150.85844 17406 ft 285 kts 63°
2026-04-29 17:36 58.23299 -150.82563 17414 ft 285 kts 63°
2026-04-29 17:37 58.24261 -150.79273 17395 ft 285 kts 64°
2026-04-29 17:37 58.25218 -150.75987 17400 ft 285 kts 64°
2026-04-29 17:37 58.26173 -150.72697 17396 ft 284 kts 64°
2026-04-29 17:37 58.27129 -150.69412 17414 ft 284 kts 64°
2026-04-29 17:38 58.28086 -150.66133 17395 ft 284 kts 63°
2026-04-29 17:38 58.29045 -150.62848 17406 ft 284 kts 64°
2026-04-29 17:38 58.29990 -150.59594 17395 ft 284 kts 64°
2026-04-29 17:38 58.30950 -150.56266 17400 ft 284 kts 64°
2026-04-29 17:39 58.31885 -150.53016 17402 ft 283 kts 64°
2026-04-29 17:39 58.32832 -150.49727 17408 ft 284 kts 64°
2026-04-29 17:39 58.33783 -150.46438 17408 ft 284 kts 64°
2026-04-29 17:39 58.34736 -150.43148 17410 ft 284 kts 64°
2026-04-29 17:40 58.35685 -150.39857 17412 ft 283 kts 64°
2026-04-29 17:40 58.36630 -150.36555 17414 ft 283 kts 64°
2026-04-29 17:40 58.37572 -150.33252 17415 ft 283 kts 64°
2026-04-29 17:40 58.38513 -150.29955 17400 ft 283 kts 64°
2026-04-29 17:41 58.39457 -150.26656 17419 ft 283 kts 64°
2026-04-29 17:41 58.40403 -150.23359 17413 ft 283 kts 64°
2026-04-29 17:41 58.41349 -150.20053 17411 ft 283 kts 64°
2026-04-29 17:41 58.42288 -150.16752 17410 ft 283 kts 64°
2026-04-29 17:42 58.43225 -150.13438 17419 ft 283 kts 64°
2026-04-29 17:42 58.44160 -150.10128 17412 ft 283 kts 64°
2026-04-29 17:42 58.45099 -150.06816 17418 ft 283 kts 64°
2026-04-29 17:42 58.46039 -150.03513 17414 ft 283 kts 64°
2026-04-29 17:43 58.46979 -150.00204 17411 ft 283 kts 64°
2026-04-29 17:43 58.47914 -149.96894 17411 ft 283 kts 64°
2026-04-29 17:43 58.48845 -149.93574 17417 ft 284 kts 64°
2026-04-29 17:43 58.49778 -149.90242 17418 ft 284 kts 64°
2026-04-29 17:44 58.50711 -149.86912 17411 ft 284 kts 64°
2026-04-29 17:44 58.51650 -149.83575 17416 ft 285 kts 64°
2026-04-29 17:44 58.52588 -149.80244 17417 ft 285 kts 64°
2026-04-29 17:44 58.53526 -149.76902 17412 ft 285 kts 64°
2026-04-29 17:45 58.54458 -149.73558 17419 ft 285 kts 65°
2026-04-29 17:45 58.55387 -149.70208 17419 ft 285 kts 65°
2026-04-29 17:45 58.56316 -149.66859 17421 ft 285 kts 65°
2026-04-29 17:45 58.57250 -149.63506 17425 ft 285 kts 64°
2026-04-29 17:46 58.58185 -149.60158 17421 ft 285 kts 64°
2026-04-29 17:46 58.59118 -149.56807 17420 ft 285 kts 65°
2026-04-29 17:46 58.60034 -149.53495 17422 ft 285 kts 65°
2026-04-29 17:46 58.60969 -149.50100 17423 ft 285 kts 65°
2026-04-29 17:47 58.61894 -149.46732 17420 ft 285 kts 65°
2026-04-29 17:47 58.62820 -149.43372 17417 ft 285 kts 65°
2026-04-29 17:47 58.63739 -149.40044 17417 ft 285 kts 65°
2026-04-29 17:47 58.64667 -149.36687 17423 ft 285 kts 65°
2026-04-29 17:48 58.65591 -149.33324 17417 ft 285 kts 65°
2026-04-29 17:48 58.66512 -149.29951 17422 ft 285 kts 65°
2026-04-29 17:48 58.67429 -149.26582 17423 ft 285 kts 65°
2026-04-29 17:48 58.68349 -149.23206 17426 ft 285 kts 65°
2026-04-29 17:49 58.69271 -149.19837 17427 ft 285 kts 65°
2026-04-29 17:49 58.70195 -149.16464 17426 ft 285 kts 65°
2026-04-29 17:49 58.71117 -149.13086 17425 ft 285 kts 65°
2026-04-29 17:49 58.72033 -149.09705 17425 ft 285 kts 65°
2026-04-29 17:50 58.72944 -149.06325 17435 ft 285 kts 65°
2026-04-29 17:50 58.73857 -149.02943 17428 ft 285 kts 65°
2026-04-29 17:50 58.74774 -148.99555 17431 ft 285 kts 65°
2026-04-29 17:50 58.75691 -148.96179 17433 ft 285 kts 65°
2026-04-29 17:51 58.76610 -148.92793 17428 ft 285 kts 65°
2026-04-29 17:51 58.77522 -148.89406 17437 ft 285 kts 66°
2026-04-29 17:51 58.78427 -148.86012 17416 ft 285 kts 66°
2026-04-29 17:51 58.79334 -148.82622 17429 ft 285 kts 66°
2026-04-29 17:52 58.80248 -148.79226 17428 ft 285 kts 66°
2026-04-29 17:52 58.80852 -148.76973 17432 ft 286 kts 66°
2026-04-29 17:52 58.82058 -148.72454 17437 ft 286 kts 66°
2026-04-29 17:52 58.82965 -148.69036 17435 ft 286 kts 66°
2026-04-29 17:53 58.83874 -148.65619 17438 ft 286 kts 66°
2026-04-29 17:53 58.84786 -148.62200 17431 ft 286 kts 66°
2026-04-29 17:53 58.85700 -148.58774 17436 ft 286 kts 66°
2026-04-29 17:53 58.86608 -148.55356 17437 ft 286 kts 66°
2026-04-29 17:54 58.87514 -148.51925 17437 ft 286 kts 67°
2026-04-29 17:54 58.88416 -148.48492 17434 ft 286 kts 67°
2026-04-29 17:54 58.89319 -148.45061 17435 ft 286 kts 66°
2026-04-29 17:54 58.90226 -148.41632 17435 ft 286 kts 66°
2026-04-29 17:55 58.91134 -148.38201 17436 ft 286 kts 66°
2026-04-29 17:55 58.92041 -148.34765 17434 ft 286 kts 68°
2026-04-29 17:55 58.92945 -148.31328 17434 ft 287 kts 68°
2026-04-29 17:55 58.93845 -148.27881 17434 ft 287 kts 68°
2026-04-29 17:56 58.94729 -148.24468 17435 ft 287 kts 68°
2026-04-29 17:56 58.95623 -148.21024 17434 ft 287 kts 68°
2026-04-29 17:56 58.96525 -148.17570 17435 ft 287 kts 68°
2026-04-29 17:56 58.97429 -148.14124 17435 ft 287 kts 68°
2026-04-29 17:57 58.98331 -148.10673 17435 ft 287 kts 68°
2026-04-29 17:57 58.99228 -148.07213 17437 ft 287 kts 68°
2026-04-29 17:57 59.00118 -148.03753 17436 ft 287 kts 68°
2026-04-29 17:57 59.00710 -148.01453 17436 ft 287 kts 68°
2026-04-29 17:58 59.01908 -147.96812 17439 ft 287 kts 68°
2026-04-29 17:58 59.02503 -147.94520 17438 ft 287 kts 68°
2026-04-29 17:58 59.03704 -147.89884 17438 ft 287 kts 68°
2026-04-29 17:58 59.04295 -147.87587 17438 ft 287 kts 68°
2026-04-29 17:59 59.05471 -147.82985 17438 ft 287 kts 68°
2026-04-29 17:59 59.06069 -147.80636 17438 ft 287 kts 68°
2026-04-29 17:59 59.06956 -147.77164 17438 ft 287 kts 68°
2026-04-29 17:59 59.08135 -147.72580 17440 ft 287 kts 69°
2026-04-29 18:00 59.08707 -147.70360 17438 ft 287 kts 69°
2026-04-29 18:00 59.09586 -147.66928 17441 ft 287 kts 69°
2026-04-29 18:00 59.10484 -147.63382 17446 ft 289 kts 70°
2026-04-29 18:00 59.11358 -147.59910 17443 ft 290 kts 70°
2026-04-29 18:01 59.12258 -147.56335 17448 ft 291 kts 69°
2026-04-29 18:01 59.13144 -147.52841 17446 ft 292 kts 69°
2026-04-29 18:01 59.14046 -147.49302 17444 ft 292 kts 69°
2026-04-29 18:01 59.14948 -147.45752 17449 ft 292 kts 69°
2026-04-29 18:02 59.15856 -147.42145 17452 ft 292 kts 70°
2026-04-29 18:02 59.16733 -147.38638 17452 ft 292 kts 70°
2026-04-29 18:02 59.17625 -147.35067 17450 ft 292 kts 70°
2026-04-29 18:02 59.18517 -147.31512 17452 ft 292 kts 69°
2026-04-29 18:03 59.19412 -147.27959 17448 ft 292 kts 69°
2026-04-29 18:03 59.20305 -147.24410 17450 ft 292 kts 70°
2026-04-29 18:03 59.21192 -147.20848 17448 ft 292 kts 70°
2026-04-29 18:03 59.22078 -147.17272 17447 ft 292 kts 70°
2026-04-29 18:04 59.22963 -147.13700 17459 ft 292 kts 70°
2026-04-29 18:04 59.23851 -147.10131 17445 ft 293 kts 70°
2026-04-29 18:04 59.24745 -147.06551 17448 ft 293 kts 70°
2026-04-29 18:04 59.25635 -147.02972 17446 ft 293 kts 70°
2026-04-29 18:05 59.26518 -146.99391 17450 ft 292 kts 70°
2026-04-29 18:05 59.27396 -146.95805 17450 ft 292 kts 70°
2026-04-29 18:05 59.28273 -146.92229 17452 ft 292 kts 70°
2026-04-29 18:05 59.29156 -146.88649 17447 ft 291 kts 70°
2026-04-29 18:06 59.30025 -146.85134 17444 ft 291 kts 70°
2026-04-29 18:06 59.30903 -146.81565 17443 ft 291 kts 70°
2026-04-29 18:06 59.31775 -146.77994 17446 ft 291 kts 70°
2026-04-29 18:06 59.32642 -146.74425 17446 ft 291 kts 70°
2026-04-29 18:07 59.33513 -146.70846 17454 ft 291 kts 70°
2026-04-29 18:07 59.34388 -146.67265 17448 ft 291 kts 70°
2026-04-29 18:07 59.35264 -146.63684 17449 ft 291 kts 70°
2026-04-29 18:07 59.36139 -146.60091 17449 ft 292 kts 70°
2026-04-29 18:08 59.37006 -146.56500 17449 ft 292 kts 71°
2026-04-29 18:08 59.37874 -146.52895 17454 ft 292 kts 71°
2026-04-29 18:08 59.38744 -146.49285 17457 ft 293 kts 70°
2026-04-29 18:08 59.39615 -146.45683 17446 ft 292 kts 70°
2026-04-29 18:09 59.40486 -146.42073 17444 ft 293 kts 70°
2026-04-29 18:09 59.41348 -146.38453 17445 ft 291 kts 72°
2026-04-29 18:09 59.41742 -146.34694 17451 ft 276 kts 98°
2026-04-29 18:09 59.41456 -146.31040 17443 ft 266 kts 115°
2026-04-29 18:10 59.40800 -146.27682 17451 ft 263 kts 120°
2026-04-29 18:10 59.40144 -146.24316 17447 ft 265 kts 116°
2026-04-29 18:10 59.39597 -146.20843 17447 ft 266 kts 114°
2026-04-29 18:10 59.39051 -146.17381 17445 ft 265 kts 116°
2026-04-29 18:11 59.38434 -146.13987 17447 ft 263 kts 118°
2026-04-29 18:11 59.37768 -146.10652 17444 ft 262 kts 119°
2026-04-29 18:11 59.37108 -146.07311 17443 ft 263 kts 118°
2026-04-29 18:11 59.36488 -146.03938 17443 ft 263 kts 117°
2026-04-29 18:12 59.35897 -146.00550 17440 ft 263 kts 116°
2026-04-29 18:12 59.35302 -145.97170 17440 ft 261 kts 117°
2026-04-29 18:12 59.34686 -145.93827 17439 ft 260 kts 118°
2026-04-29 18:12 59.34055 -145.90513 17440 ft 259 kts 118°
2026-04-29 18:13 59.33433 -145.87240 17438 ft 259 kts 118°
2026-04-29 18:13 59.32818 -145.83921 17443 ft 259 kts 117°
2026-04-29 18:13 59.32214 -145.80602 17441 ft 258 kts 117°
2026-04-29 18:13 59.31609 -145.77298 17440 ft 257 kts 117°
2026-04-29 18:14 59.30996 -145.74021 17438 ft 256 kts 118°
2026-04-29 18:14 59.30379 -145.70758 17438 ft 255 kts 118°
2026-04-29 18:14 59.29763 -145.67499 17434 ft 255 kts 118°
2026-04-29 18:14 59.29156 -145.64246 17440 ft 254 kts 117°
2026-04-29 18:15 59.28552 -145.60993 17438 ft 254 kts 117°
2026-04-29 18:15 59.27948 -145.57756 17438 ft 253 kts 118°
2026-04-29 18:15 59.27338 -145.54527 17437 ft 253 kts 118°
2026-04-29 18:15 59.26726 -145.51306 17437 ft 252 kts 118°
2026-04-29 18:16 59.26128 -145.48158 17437 ft 252 kts 118°
2026-04-29 18:16 59.25512 -145.44890 17439 ft 251 kts 118°
2026-04-29 18:16 59.24909 -145.41690 17434 ft 251 kts 118°
2026-04-29 18:16 59.24304 -145.38494 17436 ft 250 kts 118°
2026-04-29 18:17 59.23706 -145.35355 17436 ft 249 kts 118°
2026-04-29 18:17 59.23100 -145.32192 17433 ft 249 kts 118°
2026-04-29 18:17 59.22494 -145.29023 17433 ft 248 kts 118°
2026-04-29 18:17 59.21893 -145.25873 17432 ft 248 kts 118°
2026-04-29 18:18 59.21294 -145.22721 17437 ft 247 kts 118°
2026-04-29 18:18 59.20695 -145.19591 17434 ft 246 kts 118°
2026-04-29 18:18 59.20093 -145.16464 17435 ft 246 kts 118°
2026-04-29 18:18 59.19491 -145.13347 17433 ft 245 kts 118°
2026-04-29 18:19 59.18890 -145.10232 17433 ft 245 kts 118°
2026-04-29 18:19 59.18292 -145.07127 17433 ft 244 kts 118°
2026-04-29 18:19 59.17695 -145.04025 17433 ft 244 kts 118°
2026-04-29 18:19 59.17097 -145.00928 17432 ft 244 kts 118°
2026-04-29 18:20 59.16497 -144.97838 17432 ft 244 kts 118°
2026-04-29 18:20 59.15897 -144.94760 17431 ft 243 kts 118°
2026-04-29 18:20 59.15297 -144.91677 17431 ft 243 kts 118°
2026-04-29 18:20 59.14697 -144.88593 17432 ft 243 kts 118°
2026-04-29 18:21 59.14098 -144.85518 17434 ft 242 kts 118°
2026-04-29 18:21 59.13508 -144.82494 17429 ft 242 kts 118°
2026-04-29 18:21 59.12910 -144.79434 17427 ft 242 kts 119°
2026-04-29 18:21 59.12309 -144.76377 17426 ft 242 kts 119°
2026-04-29 18:22 59.11707 -144.73321 17425 ft 242 kts 119°
2026-04-29 18:22 59.11103 -144.70257 17425 ft 243 kts 119°
2026-04-29 18:22 59.10500 -144.67184 17426 ft 243 kts 118°
2026-04-29 18:22 59.09898 -144.64119 17428 ft 243 kts 118°
2026-04-29 18:23 59.09294 -144.61053 17393 ft 243 kts 119°
2026-04-29 18:23 59.08691 -144.58000 17431 ft 241 kts 119°
2026-04-29 18:23 59.08091 -144.54973 17427 ft 240 kts 119°
2026-04-29 18:23 59.07488 -144.51942 17426 ft 240 kts 119°
2026-04-29 18:24 59.06887 -144.48925 17428 ft 239 kts 119°
2026-04-29 18:24 59.06287 -144.45912 17429 ft 239 kts 119°
2026-04-29 18:24 59.05689 -144.42905 17427 ft 238 kts 119°
2026-04-29 18:24 59.05091 -144.39901 17428 ft 238 kts 119°
2026-04-29 18:25 59.04492 -144.36911 17424 ft 237 kts 120°
2026-04-29 18:25 59.03895 -144.33934 17423 ft 237 kts 120°
2026-04-29 18:25 59.03305 -144.30991 17422 ft 237 kts 120°
2026-04-29 18:25 59.02707 -144.28016 17423 ft 237 kts 120°
2026-04-29 18:26 59.02108 -144.25032 17424 ft 237 kts 120°
2026-04-29 18:26 59.01509 -144.22053 17424 ft 237 kts 120°
2026-04-29 18:26 59.00908 -144.19075 17424 ft 237 kts 120°
2026-04-29 18:26 59.00308 -144.16109 17423 ft 237 kts 120°
2026-04-29 18:27 58.99705 -144.13132 17421 ft 237 kts 120°
2026-04-29 18:27 58.99104 -144.10163 17421 ft 237 kts 120°
2026-04-29 18:27 58.98501 -144.07185 17421 ft 237 kts 120°
2026-04-29 18:27 58.97899 -144.04219 17421 ft 236 kts 120°
2026-04-29 18:28 58.97297 -144.01258 17406 ft 235 kts 121°
2026-04-29 18:28 58.96702 -143.98311 17421 ft 234 kts 121°
2026-04-29 18:28 58.96106 -143.95377 17417 ft 234 kts 121°
2026-04-29 18:28 58.95504 -143.92452 17420 ft 234 kts 121°
2026-04-29 18:29 58.94897 -143.89529 17424 ft 234 kts 121°
2026-04-29 18:29 58.94496 -143.87588 17417 ft 234 kts 121°
2026-04-29 18:29 58.93692 -143.83658 17413 ft 234 kts 121°
2026-04-29 18:29 58.93095 -143.80723 17411 ft 234 kts 121°
2026-04-29 18:30 58.92501 -143.77832 17417 ft 234 kts 121°
2026-04-29 18:30 58.91713 -143.74026 17412 ft 233 kts 122°
2026-04-29 18:30 58.89346 -143.62588 17412 ft 231 kts 122°
2026-04-29 18:30 58.86947 -143.51079 17406 ft 231 kts 122°
2026-04-29 18:31 58.84542 -143.39550 17424 ft 232 kts 123°
2026-04-29 18:31 58.82090 -143.27964 17429 ft 234 kts 123°
2026-04-29 18:31 58.79642 -143.16366 17418 ft 232 kts 123°
2026-04-29 18:31 58.77204 -143.04910 17417 ft 231 kts 123°
2026-04-29 18:32 58.74740 -142.93427 17415 ft 233 kts 123°
2026-04-29 18:32 58.69769 -142.70396 17405 ft 232 kts 124°
2026-04-29 18:32 58.67290 -142.59002 17403 ft 229 kts 124°
2026-04-29 18:33 58.64823 -142.47728 17409 ft 229 kts 124°
2026-04-29 18:33 58.62331 -142.36413 17409 ft 232 kts 124°
2026-04-29 18:33 58.59819 -142.25047 17397 ft 230 kts 124°
2026-04-29 18:33 58.57320 -142.13815 17401 ft 229 kts 124°
2026-04-29 18:34 58.54823 -142.02661 17398 ft 227 kts 125°
2026-04-29 18:34 58.53177 -141.95319 17398 ft 226 kts 125°
2026-04-29 18:34 58.49865 -141.80657 17394 ft 223 kts 125°
2026-04-29 18:34 58.47414 -141.69870 17396 ft 219 kts 125°
2026-04-29 18:35 58.44960 -141.59124 17397 ft 222 kts 125°
2026-04-29 18:35 58.42466 -141.48250 17397 ft 224 kts 125°
2026-04-29 18:35 58.39962 -141.37403 17395 ft 223 kts 125°
2026-04-29 18:35 58.37457 -141.26590 17403 ft 223 kts 125°
2026-04-29 18:36 58.34930 -141.15754 17396 ft 224 kts 125°
2026-04-29 18:36 58.32385 -141.04882 17392 ft 228 kts 125°
2026-04-29 18:36 58.29772 -140.93776 17399 ft 231 kts 124°
2026-04-29 18:36 58.27142 -140.82663 17387 ft 229 kts 125°
2026-04-29 18:37 58.24564 -140.71819 17385 ft 227 kts 125°
2026-04-29 18:37 58.21974 -140.60981 17378 ft 224 kts 125°
2026-04-29 18:37 58.20027 -140.52857 17375 ft 222 kts 126°
2026-04-29 18:37 58.19383 -140.50195 17377 ft 222 kts 126°
2026-04-29 18:38 58.18740 -140.47539 17366 ft 222 kts 126°
2026-04-29 18:38 58.18099 -140.44877 17366 ft 221 kts 126°
2026-04-29 18:38 58.17462 -140.42228 17370 ft 221 kts 126°
2026-04-29 18:38 58.16825 -140.39591 17369 ft 220 kts 126°
2026-04-29 18:39 58.16188 -140.36962 17363 ft 219 kts 126°
2026-04-29 18:39 58.15553 -140.34348 17367 ft 219 kts 126°
2026-04-29 18:39 58.14917 -140.31728 17366 ft 218 kts 126°
2026-04-29 18:39 58.14283 -140.29120 17365 ft 218 kts 126°
2026-04-29 18:40 58.13658 -140.26538 17465 ft 214 kts 127°
2026-04-29 18:40 58.13045 -140.24005 17630 ft 208 kts 127°
2026-04-29 18:40 58.12452 -140.21563 17834 ft 201 kts 127°
2026-04-29 18:40 58.11871 -140.19188 18046 ft 196 kts 128°
2026-04-29 18:41 58.10193 -140.12350 18649 ft 187 kts 128°
2026-04-29 18:41 58.09651 -140.10131 18837 ft 185 kts 129°
2026-04-29 18:42 58.09113 -140.07939 19030 ft 183 kts 129°
2026-04-29 18:42 58.08579 -140.05768 19214 ft 181 kts 129°
2026-04-29 18:42 58.08049 -140.03612 19391 ft 180 kts 129°
2026-04-29 18:42 58.07522 -140.01472 19551 ft 179 kts 130°
2026-04-29 18:43 58.07016 -139.99421 19740 ft 178 kts 130°
2026-04-29 18:43 58.06494 -139.97302 19938 ft 178 kts 130°
2026-04-29 18:43 58.05972 -139.95188 20135 ft 177 kts 130°
2026-04-29 18:43 58.05451 -139.93083 20333 ft 177 kts 130°
2026-04-29 18:44 58.04932 -139.90985 20534 ft 176 kts 130°
2026-04-29 18:44 58.04422 -139.88925 20734 ft 175 kts 130°
2026-04-29 18:44 58.03900 -139.86817 20931 ft 175 kts 130°
2026-04-29 18:44 58.03392 -139.84768 21138 ft 174 kts 130°
2026-04-29 18:45 58.02878 -139.82697 21338 ft 174 kts 130°
2026-04-29 18:45 58.02345 -139.80587 21361 ft 184 kts 130°
2026-04-29 18:45 58.01780 -139.78354 21366 ft 193 kts 129°
2026-04-29 18:45 58.01200 -139.76021 21366 ft 200 kts 129°
2026-04-29 18:46 58.00607 -139.73608 21368 ft 205 kts 128°
2026-04-29 18:46 57.99997 -139.71140 21364 ft 210 kts 128°
2026-04-29 18:46 57.99371 -139.68635 21371 ft 213 kts 128°
2026-04-29 18:46 57.98734 -139.66098 21368 ft 215 kts 128°
2026-04-29 18:47 57.98093 -139.63535 21364 ft 217 kts 128°
2026-04-29 18:47 57.97447 -139.60952 21368 ft 219 kts 128°
2026-04-29 18:47 57.96798 -139.58361 21364 ft 219 kts 128°
2026-04-29 18:47 57.96144 -139.55755 21361 ft 220 kts 128°
2026-04-29 18:48 57.95495 -139.53178 21362 ft 221 kts 128°
2026-04-29 18:48 57.94834 -139.50557 21359 ft 221 kts 128°
2026-04-29 18:48 57.94174 -139.47937 21359 ft 222 kts 128°
2026-04-29 18:48 57.93512 -139.45312 21360 ft 222 kts 128°
2026-04-29 18:49 57.93064 -139.43539 21357 ft 222 kts 128°
2026-04-29 18:49 57.92409 -139.40947 21360 ft 222 kts 128°
2026-04-29 18:49 57.91745 -139.38327 21353 ft 222 kts 128°
2026-04-29 18:49 57.91080 -139.35703 21353 ft 222 kts 128°
2026-04-29 18:50 57.90415 -139.33083 21350 ft 222 kts 128°
2026-04-29 18:50 57.89750 -139.30465 21358 ft 222 kts 128°
2026-04-29 18:50 57.89081 -139.27841 21353 ft 222 kts 128°
2026-04-29 18:50 57.88414 -139.25223 21353 ft 222 kts 128°
2026-04-29 18:51 57.87745 -139.22596 21349 ft 222 kts 128°
2026-04-29 18:51 57.87077 -139.19978 21347 ft 222 kts 128°
2026-04-29 18:51 57.86408 -139.17362 21341 ft 222 kts 128°
2026-04-29 18:51 57.85738 -139.14743 21341 ft 222 kts 128°
2026-04-29 18:52 57.85067 -139.12128 21343 ft 222 kts 128°
2026-04-29 18:52 57.84396 -139.09515 21343 ft 222 kts 128°
2026-04-29 18:52 57.83724 -139.06895 21343 ft 222 kts 128°
2026-04-29 18:52 57.83052 -139.04281 21344 ft 222 kts 128°
2026-04-29 18:53 57.82378 -139.01665 21342 ft 222 kts 128°
2026-04-29 18:53 57.81705 -138.99055 21342 ft 222 kts 128°
2026-04-29 18:53 57.81031 -138.96442 21342 ft 222 kts 128°
2026-04-29 18:53 57.80361 -138.93841 21330 ft 221 kts 128°
2026-04-29 18:54 57.79699 -138.91282 21332 ft 221 kts 128°
2026-04-29 18:54 57.79018 -138.88660 21343 ft 221 kts 128°
2026-04-29 18:54 57.78356 -138.86108 21343 ft 221 kts 128°
2026-04-29 18:54 57.77685 -138.83520 21342 ft 221 kts 128°
2026-04-29 18:55 57.77013 -138.80930 21339 ft 221 kts 128°
2026-04-29 18:55 57.76342 -138.78350 21339 ft 221 kts 128°
2026-04-29 18:55 57.75670 -138.75770 21339 ft 220 kts 128°
2026-04-29 18:55 57.74996 -138.73190 21342 ft 220 kts 128°
2026-04-29 18:56 57.74402 -138.70913 21340 ft 220 kts 128°
2026-04-29 18:56 57.73729 -138.68338 21341 ft 220 kts 128°
2026-04-29 18:56 57.73056 -138.65763 21340 ft 220 kts 128°
2026-04-29 18:56 57.72382 -138.63193 21340 ft 220 kts 128°
2026-04-29 18:57 57.71709 -138.60627 21339 ft 220 kts 128°
2026-04-29 18:57 57.71033 -138.58058 21338 ft 220 kts 128°
2026-04-29 18:57 57.70358 -138.55491 21339 ft 220 kts 128°
2026-04-29 18:57 57.69684 -138.52919 21344 ft 220 kts 128°
2026-04-29 18:58 57.69008 -138.50343 21347 ft 220 kts 128°
2026-04-29 18:58 57.68332 -138.47779 21347 ft 220 kts 128°
2026-04-29 18:58 57.67668 -138.45273 21347 ft 220 kts 129°
2026-04-29 18:58 57.66975 -138.42657 21344 ft 220 kts 128°
2026-04-29 18:59 57.66310 -138.40142 21340 ft 219 kts 128°
2026-04-29 18:59 57.65635 -138.37590 21347 ft 219 kts 128°
2026-04-29 18:59 57.64961 -138.35039 21347 ft 219 kts 129°
2026-04-29 18:59 57.64284 -138.32484 21343 ft 220 kts 129°
2026-04-29 19:00 57.63618 -138.29988 21349 ft 221 kts 129°
2026-04-29 19:00 57.62932 -138.27419 21350 ft 221 kts 129°
2026-04-29 19:00 57.62246 -138.24846 21350 ft 222 kts 129°
2026-04-29 19:00 57.61558 -138.22263 21351 ft 222 kts 129°
2026-04-29 19:01 57.60870 -138.19681 21352 ft 222 kts 129°
2026-04-29 19:01 57.60180 -138.17101 21360 ft 223 kts 129°
2026-04-29 19:01 57.59488 -138.14516 21352 ft 223 kts 129°
2026-04-29 19:01 57.58796 -138.11936 21353 ft 223 kts 129°
2026-04-29 19:02 57.58104 -138.09355 21357 ft 223 kts 129°
2026-04-29 19:02 57.57644 -138.07641 21355 ft 223 kts 129°
2026-04-29 19:02 57.56715 -138.04185 21355 ft 223 kts 129°
2026-04-29 19:02 57.56019 -138.01603 21354 ft 223 kts 129°
2026-04-29 19:03 57.55324 -137.99021 21355 ft 223 kts 129°
2026-04-29 19:03 57.54627 -137.96439 21359 ft 223 kts 129°
2026-04-29 19:03 57.53930 -137.93852 21356 ft 223 kts 129°
2026-04-29 19:03 57.53234 -137.91274 21361 ft 223 kts 129°
2026-04-29 19:04 57.52545 -137.88734 21354 ft 222 kts 128°
2026-04-29 19:04 57.51850 -137.86180 21360 ft 222 kts 128°
2026-04-29 19:04 57.51155 -137.83625 21359 ft 222 kts 128°
2026-04-29 19:04 57.50460 -137.81056 21370 ft 222 kts 128°
2026-04-29 19:05 57.49766 -137.78494 21370 ft 222 kts 128°
2026-04-29 19:05 57.49066 -137.75924 21370 ft 222 kts 128°
2026-04-29 19:05 57.48367 -137.73364 21371 ft 222 kts 128°
2026-04-29 19:05 57.47668 -137.70805 21372 ft 222 kts 128°
2026-04-29 19:06 57.46969 -137.68242 21380 ft 222 kts 128°
2026-04-29 19:06 57.46271 -137.65685 21380 ft 222 kts 129°
2026-04-29 19:06 57.44868 -137.60568 21378 ft 222 kts 129°
2026-04-29 19:07 57.44168 -137.58017 21375 ft 222 kts 129°
2026-04-29 19:07 57.43701 -137.56319 21374 ft 222 kts 129°
2026-04-29 19:07 57.42763 -137.52905 21375 ft 222 kts 129°
2026-04-29 19:07 57.42061 -137.50354 21374 ft 222 kts 129°
2026-04-29 19:08 57.41358 -137.47803 21385 ft 222 kts 129°
2026-04-29 19:08 57.40655 -137.45254 21384 ft 222 kts 129°
2026-04-29 19:08 57.39951 -137.42708 21385 ft 222 kts 129°
2026-04-29 19:08 57.39249 -137.40165 21384 ft 222 kts 129°
2026-04-29 19:09 57.38546 -137.37626 21386 ft 222 kts 129°
2026-04-29 19:09 57.37843 -137.35091 21386 ft 220 kts 129°
2026-04-29 19:09 57.37149 -137.32596 21387 ft 221 kts 129°
2026-04-29 19:09 57.36446 -137.30066 21387 ft 221 kts 128°
2026-04-29 19:10 57.35744 -137.27535 21385 ft 221 kts 128°
2026-04-29 19:10 57.35040 -137.25001 21394 ft 221 kts 129°
2026-04-29 19:10 57.34333 -137.22467 21394 ft 221 kts 129°
2026-04-29 19:10 57.33626 -137.19937 21394 ft 221 kts 129°
2026-04-29 19:11 57.32920 -137.17411 21393 ft 221 kts 129°
2026-04-29 19:11 57.32214 -137.14881 21393 ft 221 kts 129°
2026-04-29 19:11 57.31506 -137.12350 21393 ft 221 kts 129°
2026-04-29 19:11 57.30798 -137.09823 21393 ft 221 kts 129°
2026-04-29 19:12 57.30088 -137.07296 21394 ft 221 kts 129°
2026-04-29 19:12 57.29379 -137.04771 21405 ft 221 kts 129°
2026-04-29 19:12 57.28668 -137.02245 21404 ft 222 kts 129°
2026-04-29 19:12 57.28196 -137.00567 21404 ft 222 kts 129°
2026-04-29 19:13 57.27245 -136.97183 21404 ft 222 kts 129°
2026-04-29 19:13 57.26533 -136.94658 21404 ft 222 kts 129°
2026-04-29 19:13 57.25820 -136.92135 21403 ft 221 kts 129°
2026-04-29 19:13 57.25106 -136.89615 21403 ft 221 kts 129°
2026-04-29 19:14 57.24393 -136.87094 21404 ft 221 kts 129°
2026-04-29 19:14 57.23680 -136.84577 21413 ft 220 kts 128°
2026-04-29 19:14 57.22967 -136.82066 21409 ft 221 kts 128°
2026-04-29 19:14 57.22252 -136.79551 21410 ft 221 kts 128°
2026-04-29 19:15 57.21538 -136.77035 21419 ft 221 kts 128°
2026-04-29 19:15 57.20824 -136.74521 21419 ft 221 kts 128°
2026-04-29 19:15 57.20108 -136.72007 21420 ft 221 kts 129°
2026-04-29 19:15 57.19391 -136.69492 21419 ft 221 kts 129°
2026-04-29 19:16 57.18672 -136.66979 21420 ft 222 kts 129°
2026-04-29 19:16 57.17954 -136.64465 21427 ft 222 kts 129°
2026-04-29 19:16 57.17235 -136.61952 21426 ft 222 kts 129°
2026-04-29 19:16 57.16516 -136.59440 21428 ft 222 kts 129°
2026-04-29 19:17 57.15795 -136.56929 21425 ft 222 kts 129°
2026-04-29 19:17 57.15072 -136.54409 21425 ft 222 kts 129°
2026-04-29 19:17 57.14350 -136.51893 21425 ft 222 kts 129°
2026-04-29 19:17 57.13625 -136.49375 21426 ft 223 kts 129°
2026-04-29 19:18 57.12900 -136.46858 21425 ft 223 kts 129°
2026-04-29 19:18 57.12420 -136.45191 21425 ft 222 kts 129°
2026-04-29 19:18 57.11451 -136.41830 21436 ft 222 kts 129°
2026-04-29 19:18 57.10727 -136.39327 21436 ft 222 kts 129°
2026-04-29 19:19 57.10001 -136.36819 21437 ft 222 kts 129°
2026-04-29 19:19 57.09276 -136.34312 21408 ft 222 kts 129°
2026-04-29 19:19 57.08551 -136.31817 21438 ft 221 kts 128°
2026-04-29 19:19 57.07835 -136.29353 21436 ft 222 kts 128°
2026-04-29 19:20 57.07108 -136.26846 21439 ft 222 kts 128°
2026-04-29 19:20 57.06379 -136.24334 21454 ft 223 kts 128°
2026-04-29 19:20 57.05646 -136.21813 21454 ft 224 kts 128°
2026-04-29 19:20 57.04910 -136.19292 21445 ft 224 kts 128°
2026-04-29 19:21 57.04173 -136.16765 21454 ft 224 kts 128°
2026-04-29 19:21 57.03433 -136.14235 21458 ft 226 kts 128°
2026-04-29 19:21 57.02688 -136.11687 21456 ft 227 kts 128°
2026-04-29 19:21 57.01937 -136.09123 21458 ft 229 kts 128°
2026-04-29 19:22 57.01182 -136.06547 21458 ft 229 kts 128°
2026-04-29 19:22 57.00428 -136.03968 21461 ft 229 kts 128°
2026-04-29 19:22 56.99679 -136.01406 21452 ft 227 kts 128°
2026-04-29 19:22 56.98932 -135.98874 21464 ft 225 kts 129°
2026-04-29 19:23 56.98190 -135.96356 21460 ft 224 kts 129°
2026-04-29 19:23 56.97453 -135.93853 21461 ft 224 kts 129°
2026-04-29 19:23 56.96713 -135.91344 21462 ft 223 kts 129°
2026-04-29 19:23 56.95975 -135.88844 21469 ft 223 kts 129°
2026-04-29 19:24 56.95241 -135.86358 21462 ft 222 kts 129°
2026-04-29 19:24 56.94504 -135.83870 21439 ft 222 kts 129°
2026-04-29 19:24 56.93770 -135.81396 21468 ft 221 kts 129°
2026-04-29 19:24 56.93036 -135.78924 21469 ft 221 kts 129°
2026-04-29 19:25 56.92304 -135.76453 21471 ft 221 kts 129°
2026-04-29 19:25 56.91572 -135.73986 21472 ft 221 kts 129°
2026-04-29 19:25 56.90838 -135.71520 21470 ft 221 kts 129°
2026-04-29 19:25 56.90101 -135.69051 21472 ft 221 kts 129°
2026-04-29 19:26 56.89424 -135.66783 21469 ft 221 kts 129°
2026-04-29 19:26 56.88689 -135.64313 21472 ft 222 kts 129°
2026-04-29 19:26 56.87949 -135.61835 21490 ft 222 kts 129°
2026-04-29 19:26 56.87217 -135.59387 21492 ft 223 kts 129°
2026-04-29 19:27 56.86472 -135.56897 21492 ft 224 kts 129°
2026-04-29 19:27 56.85772 -135.54327 21489 ft 230 kts 120°
2026-04-29 19:27 56.85325 -135.51474 21494 ft 237 kts 112°
2026-04-29 19:27 56.84987 -135.48519 21497 ft 238 kts 112°
2026-04-29 19:28 56.84597 -135.45586 21496 ft 237 kts 115°
2026-04-29 19:28 56.84137 -135.42703 21494 ft 236 kts 117°
2026-04-29 19:28 56.83664 -135.39824 21513 ft 237 kts 116°
2026-04-29 19:28 56.83222 -135.36925 21512 ft 238 kts 115°
2026-04-29 19:29 56.82803 -135.33992 21511 ft 239 kts 114°
2026-04-29 19:29 56.82382 -135.31054 21512 ft 239 kts 115°
2026-04-29 19:29 56.81942 -135.28117 21489 ft 240 kts 115°
2026-04-29 19:29 56.81491 -135.25185 21504 ft 241 kts 115°
2026-04-29 19:30 56.81047 -135.22269 21501 ft 242 kts 115°
2026-04-29 19:30 56.80605 -135.19310 21502 ft 242 kts 115°
2026-04-29 19:30 56.80166 -135.16345 21496 ft 243 kts 115°
2026-04-29 19:30 56.79719 -135.13372 21480 ft 243 kts 115°
2026-04-29 19:31 56.79272 -135.10435 21443 ft 238 kts 115°
2026-04-29 19:31 56.78831 -135.07537 21422 ft 235 kts 115°
2026-04-29 19:31 56.78393 -135.04662 21391 ft 235 kts 115°
2026-04-29 19:31 56.77961 -135.01803 21368 ft 233 kts 115°
2026-04-29 19:32 56.77529 -134.98957 21338 ft 233 kts 115°
2026-04-29 19:32 56.77096 -134.96117 21319 ft 233 kts 115°
2026-04-29 19:32 56.76659 -134.93279 21295 ft 232 kts 116°
2026-04-29 19:32 56.76222 -134.90437 21285 ft 233 kts 115°
2026-04-29 19:33 56.75787 -134.87587 21263 ft 233 kts 115°
2026-04-29 19:33 56.75353 -134.84743 21236 ft 233 kts 115°
2026-04-29 19:33 56.74914 -134.81893 21187 ft 234 kts 116°
2026-04-29 19:33 56.74471 -134.79040 21134 ft 234 kts 115°
2026-04-29 19:34 56.74032 -134.76188 21084 ft 232 kts 115°
2026-04-29 19:34 56.73594 -134.73363 21031 ft 231 kts 116°
2026-04-29 19:34 56.73304 -134.71494 21007 ft 231 kts 115°
2026-04-29 19:34 56.72872 -134.68676 20952 ft 230 kts 116°
2026-04-29 19:35 56.72434 -134.65862 20896 ft 230 kts 116°
2026-04-29 19:35 56.71995 -134.63067 20849 ft 230 kts 116°
2026-04-29 19:35 56.71555 -134.60246 20804 ft 233 kts 115°
2026-04-29 19:35 56.71111 -134.57392 20757 ft 236 kts 115°
2026-04-29 19:36 56.70659 -134.54501 20714 ft 239 kts 115°
2026-04-29 19:36 56.70201 -134.51578 20665 ft 241 kts 115°
2026-04-29 19:36 56.69741 -134.48650 20617 ft 241 kts 115°
2026-04-29 19:36 56.69280 -134.45710 20568 ft 242 kts 115°
2026-04-29 19:37 56.68817 -134.42772 20502 ft 242 kts 115°
2026-04-29 19:37 56.68510 -134.40825 20482 ft 242 kts 115°
2026-04-29 19:37 56.67889 -134.36892 20413 ft 242 kts 115°
2026-04-29 19:37 56.67421 -134.33951 20369 ft 242 kts 115°
2026-04-29 19:38 56.66954 -134.31013 20320 ft 243 kts 115°
2026-04-29 19:38 56.66488 -134.28065 20272 ft 242 kts 115°
2026-04-29 19:38 56.66029 -134.25160 20222 ft 242 kts 115°
2026-04-29 19:38 56.65563 -134.22232 20170 ft 241 kts 116°
2026-04-29 19:39 56.65095 -134.19316 20127 ft 241 kts 116°
2026-04-29 19:39 56.64624 -134.16393 20089 ft 241 kts 116°
2026-04-29 19:39 56.64158 -134.13476 20039 ft 240 kts 116°
2026-04-29 19:39 56.63694 -134.10570 19989 ft 239 kts 116°
2026-04-29 19:40 56.63230 -134.07677 19946 ft 238 kts 116°
2026-04-29 19:40 56.62766 -134.04797 19886 ft 236 kts 116°
2026-04-29 19:40 56.62301 -134.01935 19845 ft 237 kts 116°
2026-04-29 19:40 56.61836 -133.99068 19793 ft 237 kts 116°
2026-04-29 19:41 56.61375 -133.96204 19739 ft 236 kts 116°
2026-04-29 19:41 56.60916 -133.93354 19702 ft 235 kts 116°
2026-04-29 19:41 56.60455 -133.90509 19650 ft 234 kts 116°
2026-04-29 19:41 56.59992 -133.87678 19602 ft 234 kts 116°
2026-04-29 19:42 56.59529 -133.84852 19555 ft 233 kts 116°
2026-04-29 19:42 56.59225 -133.82988 19505 ft 233 kts 116°
2026-04-29 19:42 56.58611 -133.79224 19458 ft 233 kts 116°
2026-04-29 19:42 56.58152 -133.76407 19404 ft 232 kts 116°
2026-04-29 19:43 56.57692 -133.73604 19359 ft 232 kts 116°
2026-04-29 19:43 56.57232 -133.70808 19311 ft 231 kts 116°
2026-04-29 19:43 56.56779 -133.68061 19274 ft 231 kts 116°
2026-04-29 19:43 56.56313 -133.65229 19226 ft 230 kts 116°
2026-04-29 19:44 56.55853 -133.62445 19172 ft 230 kts 116°
2026-04-29 19:44 56.55393 -133.59665 19089 ft 232 kts 116°
2026-04-29 19:44 56.54918 -133.56819 18824 ft 240 kts 116°
2026-04-29 19:44 56.54432 -133.53897 18542 ft 245 kts 116°
2026-04-29 19:45 56.53939 -133.50917 18217 ft 249 kts 116°
2026-04-29 19:45 56.53441 -133.47896 17900 ft 251 kts 115°
2026-04-29 19:45 56.52934 -133.44861 17595 ft 252 kts 115°
2026-04-29 19:45 56.52422 -133.41817 17241 ft 253 kts 115°
2026-04-29 19:46 56.51914 -133.38797 16936 ft 254 kts 115°
2026-04-29 19:46 56.51402 -133.35731 16627 ft 254 kts 114°
2026-04-29 19:46 56.50892 -133.32669 16321 ft 254 kts 114°
2026-04-29 19:46 56.50380 -133.29606 16018 ft 254 kts 114°
2026-04-29 19:47 56.49863 -133.26547 15721 ft 254 kts 114°
2026-04-29 19:47 56.49344 -133.23496 15425 ft 254 kts 114°
2026-04-29 19:47 56.48826 -133.20444 15126 ft 254 kts 114°
2026-04-29 19:47 56.48309 -133.17383 14834 ft 255 kts 114°
2026-04-29 19:48 56.47837 -133.14286 14535 ft 258 kts 107°
2026-04-29 19:48 56.47737 -133.12120 14344 ft 264 kts 94°
2026-04-29 19:48 56.48095 -133.07781 13920 ft 259 kts 75°
2026-04-29 19:48 56.48975 -133.04963 13607 ft 257 kts 56°
2026-04-29 19:49 56.50109 -133.02496 13272 ft 254 kts 48°
2026-04-29 19:49 56.51344 -133.00190 12830 ft 256 kts 46°
2026-04-29 19:49 56.52614 -132.97919 12366 ft 257 kts 45°
2026-04-29 19:49 56.53927 -132.95711 11910 ft 257 kts 44°
2026-04-29 19:50 56.55254 -132.93548 11466 ft 252 kts 43°
2026-04-29 19:50 56.56520 -132.91532 11005 ft 234 kts 43°
2026-04-29 19:50 56.57710 -132.89670 10534 ft 220 kts 43°
2026-04-29 19:50 56.58823 -132.87965 9883 ft 188 kts 43°
2026-04-29 19:51 56.59766 -132.86564 9154 ft 167 kts 41°
2026-04-29 19:51 56.60699 -132.85355 8523 ft 171 kts 37°
2026-04-29 19:51 56.61702 -132.84065 7911 ft 184 kts 41°
2026-04-29 19:51 56.62701 -132.82520 7312 ft 193 kts 46°
2026-04-29 19:52 56.63652 -132.80815 6666 ft 176 kts 58°
2026-04-29 19:52 56.63968 -132.79011 5926 ft 132 kts 99°
2026-04-29 19:52 56.64037 -132.77477 5234 ft 115 kts 89°
2026-04-29 19:52 56.63707 -132.76263 3681 ft 125 kts 175°
2026-04-29 19:53 56.63386 -132.75999 3340 ft 0 kts 122°
2026-04-29 19:53 56.63004 -132.74819 4152 ft 108 kts 124°
2026-04-29 19:53 56.62633 -132.73594 4427 ft 133 kts 129°
2026-04-29 19:53 56.62053 -132.71262 3114 ft 240 kts 116°
2026-04-29 19:54 56.60941 -132.65718 3479 ft 240 kts 100°
2026-04-29 19:54 56.61039 -132.62585 2975 ft 252 kts 86°
2026-04-29 19:54 56.61031 -132.59605 3251 ft 219 kts 108°
2026-04-29 19:55 56.60331 -132.57249 3190 ft 213 kts 133°
2026-04-29 19:55 56.59232 -132.55496 3203 ft 207 kts 143°
2026-04-29 19:55 56.58072 -132.53937 3224 ft 209 kts 147°
2026-04-29 19:55 56.56827 -132.52451 3125 ft 222 kts 148°
2026-04-29 19:56 56.55475 -132.50933 3019 ft 235 kts 148°
2026-04-29 19:56 56.54032 -132.49358 2709 ft 250 kts 149°
2026-04-29 19:56 56.52659 -132.47911 2374 ft 187 kts 150°
2026-04-29 19:56 56.51741 -132.46694 1469 ft 152 kts 124°
2026-04-29 19:57 56.51247 -132.45212 1095 ft 128 kts 118°
2026-04-29 19:57 56.50957 -132.44296 822 ft 125 kts 120°
2026-04-29 19:57 56.50364 -132.42450 444 ft 123 kts 122°
2026-04-29 19:57 56.49923 -132.41168 361 ft 118 kts 121°
2026-04-29 19:58 56.49458 -132.39932 237 ft 120 kts 124°
2026-04-29 19:58 56.49023 -132.38671 123 ft 116 kts 121°
2026-04-29 19:58 56.48631 -132.37547 32 ft 80 kts 122°
2026-04-29 19:58 56.48533 -132.37356 32 ft 9 kts 188°
2026-04-29 19:59 56.48514 -132.37406 34 ft 5 kts 268°
2026-04-29 19:59 56.48511 -132.37525 34 ft 14 kts 266°
2026-04-29 19:59 56.48506 -132.37620 34 ft 4 kts 254°
2026-04-29 19:59 56.48492 -132.37629 34 ft 0 kts 170°
2026-04-29 20:00 56.48466 -132.37598 32 ft 1 kts 136°
2026-04-29 20:00 56.48452 -132.37553 34 ft 9 kts 132°
2026-04-29 20:00 56.48431 -132.37541 33 ft 4 kts 207°
2026-04-29 20:00 56.48407 -132.37573 33 ft 2 kts 225°
2026-04-29 20:01 56.48406 -132.37579 34 ft 0 kts 248°
2026-04-29 20:01 56.48406 -132.37580 34 ft 0 kts 257°
2026-04-29 20:01 56.48408 -132.37587 34 ft 2 kts 295°
2026-04-29 20:01 56.48418 -132.37613 34 ft 0 kts 305°
2026-04-29 20:02 56.48414 -132.37604 34 ft 6 kts 301°
2026-04-29 20:02 56.48412 -132.37597 33 ft 1 kts 303°
2026-04-29 20:02 56.48413 -132.37598 34 ft 0 kts 303°
2026-04-29 20:03 56.48415 -132.37604 34 ft 0 kts 303°